K6LCM-13 Weather Reports


Display with metric or nautical units.
time (UTC)temp
F
wind
direction
speed
MPH
gust
MPH
rain 1hr
in
rain 24hr
in
rain mn
in
humidity
%
barometer
mb
20260506213326 66 188 2.0 8.0 0.00 0.00 0.00 73 1017.5
20260506212427 65 209 3.0 8.0 0.00 0.00 0.00 77 1017.7
20260506210627 65 178 3.0 8.0 0.00 0.00 0.00 78 1017.8
20260506205727 65 172 3.0 8.0 0.00 0.00 0.00 76 1018.0
20260506204826 65 158 3.0 8.0 0.00 0.00 0.00 78 1018.0
20260506203927 66 166 2.0 6.0 0.00 0.00 0.00 77 1018.0
20260506203026 65 173 2.0 6.0 0.00 0.00 0.00 78 1018.1
20260506201725 65 178 2.0 6.0 0.00 0.00 0.00 77 1018.2
20260506200826 65 177 1.0 8.0 0.00 0.00 0.00 75 1018.3
20260506195926 65 151 2.0 7.0 0.00 0.00 0.00 76 1018.4
20260506192326 65 195 2.0 7.0 0.00 0.00 0.00 75 1018.4
20260506191426 65 157 4.0 7.0 0.00 0.00 0.00 75 1018.4
20260506183825 65 163 2.0 7.0 0.00 0.00 0.00 77 1018.4
20260506182925 64 196 2.0 6.0 0.00 0.00 0.00 77 1018.5
20260506181126 64 151 2.0 7.0 0.00 0.00 0.00 79 1018.8
20260506180225 63 171 2.0 6.0 0.00 0.00 0.00 80 1018.7
20260506175325 63 174 2.0 6.0 0.00 0.00 0.00 80 1018.7
20260506174426 63 155 2.0 7.0 0.00 0.00 0.00 81 1018.6
20260506171726 63 190 1.0 6.0 0.00 0.00 0.00 82 1018.8
20260506170826 62 184 1.0 5.0 0.00 0.00 0.00 82 1018.7
20260506165026 61 157 1.0 5.0 0.00 0.00 0.00 84 1018.5
20260506164126 61 205 1.0 6.0 0.00 0.00 0.00 83 1018.5
20260506163225 62 161 1.0 5.0 0.00 0.00 0.00 81 1018.4
20260506162326 62 164 1.0 4.0 0.00 0.00 0.00 82 1018.5
20260506161426 62 150 1.0 5.0 0.00 0.00 0.00 82 1018.4
20260506155625 62 131 1.0 5.0 0.00 0.00 0.00 79 1018.4
20260506154726 61 146 1.0 4.0 0.00 0.00 0.00 80 1018.5
20260506153613 60 0 0.0 4.0 0.00 0.00 0.00 83 1018.5
20260506152713 60 151 1.0 4.0 0.00 0.00 0.00 86 1018.4
20260506151813 59 166 1.0 4.0 0.00 0.00 0.00 87 1018.5
20260506150913 59 166 1.0 4.0 0.00 0.00 0.00 89 1018.5
20260506150014 58 0 0.0 3.0 0.00 0.00 0.00 91 1018.3
20260506145113 58 0 0.0 3.0 0.00 0.00 0.00 92 1018.3
20260506144214 57 0 0.0 2.0 0.00 0.00 0.00 93 1018.3
20260506143313 57 0 0.0 3.0 0.00 0.00 0.00 94 1018.2
20260506142413 57 0 0.0 1.0 0.00 0.00 0.00 95 1018.1
20260506141513 56 0 0.0 1.0 0.00 0.00 0.00 95 1018.1
20260506140614 55 0 0.0 1.0 0.00 0.00 0.00 96 1018.0
20260506135713 54 0 0.0 0.0 0.00 0.00 0.00 96 1017.9
20260506134813 53 0 0.0 1.0 0.00 0.00 0.00 96 1017.8
20260506133913 52 0 0.0 2.0 0.00 0.00 0.00 95 1017.6
20260506133013 52 0 0.0 2.0 0.00 0.00 0.00 95 1017.5
20260506132113 52 0 0.0 1.0 0.00 0.00 0.00 94 1017.5
20260506131213 52 0 0.0 2.0 0.00 0.00 0.00 95 1017.5
20260506130146 52 0 0.0 2.0 0.00 0.00 0.00 94 1017.3
20260506125247 52 0 0.0 2.0 0.00 0.00 0.00 94 1017.3
20260506122547 53 35 1.0 2.0 0.00 0.00 0.00 94 1017.3
20260506121646 53 0 0.0 2.0 0.00 0.00 0.00 95 1017.3
20260506120747 52 0 0.0 2.0 0.00 0.00 0.00 94 1017.2
20260506115846 53 0 0.0 2.0 0.00 0.00 0.00 94 1017.2
20260506114947 53 0 0.0 2.0 0.00 0.00 0.00 93 1017.2
20260506112552 53 0 0.0 2.0 0.00 0.00 0.00 93 1017.2
20260506111652 53 109 1.0 2.0 0.00 0.00 0.00 93 1017.2
20260506110752 53 0 0.0 2.0 0.00 0.00 0.00 93 1017.1
20260506105853 53 0 0.0 2.0 0.00 0.00 0.00 93 1017.1
20260506104952 53 0 0.0 2.0 0.00 0.00 0.00 92 1017.0
20260506104052 54 0 0.0 2.0 0.00 0.00 0.00 93 1017.0
20260506102252 54 0 0.0 1.0 0.00 0.00 0.00 92 1016.8
20260506101352 54 0 0.0 2.0 0.00 0.00 0.00 92 1016.8
20260506100452 55 0 0.0 5.0 0.00 0.00 0.00 93 1016.9
20260506095551 55 41 1.0 5.0 0.00 0.00 0.00 93 1016.9
20260506094651 55 101 1.0 4.0 0.00 0.00 0.00 92 1016.8
20260506093752 55 0 0.0 3.0 0.00 0.00 0.00 92 1016.8
20260506092852 55 0 0.0 3.0 0.00 0.00 0.00 92 1016.8
20260506091951 55 0 0.0 3.0 0.00 0.00 0.00 92 1016.8
20260506091051 55 0 0.0 4.0 0.00 0.00 0.00 91 1016.8
20260506090152 55 63 1.0 3.0 0.00 0.00 0.00 91 1016.9
20260506085252 56 0 0.0 4.0 0.00 0.00 0.00 91 1017.1
20260506084351 56 60 2.0 5.0 0.00 0.00 0.00 91 1017.2
20260506083451 56 56 2.0 7.0 0.00 0.00 0.00 91 1017.2
20260506082552 56 58 3.0 7.0 0.00 0.00 0.00 91 1017.1
20260506081652 56 0 0.0 4.0 0.00 0.00 0.00 91 1017.3
20260506080752 56 66 2.0 6.0 0.00 0.00 0.00 91 1017.2
20260506072819 56 59 3.0 5.0 0.00 0.00 0.00 90 1017.0
20260506071919 56 59 2.0 5.0 0.00 0.00 0.00 90 1016.8
20260506071019 56 60 1.0 5.0 0.00 0.00 0.00 90 1016.7
20260506070120 57 51 1.0 3.0 0.00 0.00 0.00 90 1016.6
20260506061619 57 64 1.0 8.0 0.00 0.00 0.00 88 1016.1
20260506051043 59 56 3.0 5.0 0.00 0.00 0.00 81 1015.7
20260506050143 60 0 0.0 3.0 0.00 0.00 0.00 78 1015.5
20260506044342 60 0 0.0 6.0 0.00 0.00 0.00 74 1015.3
20260506042543 62 114 1.0 9.0 0.00 0.00 0.00 69 1015.2
20260506041642 62 303 3.0 8.0 0.00 0.00 0.00 69 1014.9
20260506040743 63 325 1.0 6.0 0.00 0.00 0.00 69 1014.7
20260506035842 63 314 1.0 7.0 0.00 0.00 0.00 68 1014.6
20260506034943 63 304 3.0 8.0 0.00 0.00 0.00 68 1014.5
20260506034043 63 297 5.0 10.0 0.00 0.00 0.00 67 1014.4
20260506033142 64 293 5.0 9.0 0.00 0.00 0.00 66 1014.3
20260506032243 64 296 4.0 11.0 0.00 0.00 0.00 66 1014.2
20260506031343 64 303 6.0 11.0 0.00 0.00 0.00 66 1014.0
20260506030432 64 300 7.0 12.0 0.00 0.00 0.00 65 1013.9
20260506025532 65 289 3.0 11.0 0.00 0.00 0.00 64 1013.7
20260506024633 65 305 3.0 11.0 0.00 0.00 0.00 64 1013.7
20260506023732 65 308 3.0 10.0 0.00 0.00 0.00 65 1013.7
20260506022832 63 300 4.0 10.0 0.00 0.00 0.00 68 1013.5
20260506021932 63 0 0.0 2.0 0.00 0.00 0.00 72 1013.5
20260506021032 63 0 0.0 3.0 0.00 0.00 0.00 71 1013.4
20260506020133 63 319 1.0 5.0 0.00 0.00 0.00 70 1013.5
20260506015233 63 296 2.0 5.0 0.00 0.00 0.00 70 1013.3
20260506014332 64 295 2.0 7.0 0.00 0.00 0.00 70 1013.3
20260506011633 65 260 2.0 6.0 0.00 0.00 0.00 68 1013.3
20260506010732 64 256 3.0 11.0 0.00 0.00 0.00 70 1013.2
20260506005833 64 265 5.0 11.0 0.00 0.00 0.00 70 1013.3
20260506004932 63 238 3.0 9.0 0.00 0.00 0.00 73 1013.2
20260506004032 62 254 4.0 9.0 0.00 0.00 0.00 73 1013.2
20260506002748 62 273 4.0 11.0 0.00 0.00 0.00 72 1013.2
20260506001848 62 279 3.0 9.0 0.00 0.00 0.00 72 1013.2
20260506000948 63 307 4.0 10.0 0.00 0.00 0.00 72 1013.1
20260506000048 63 265 4.0 14.0 0.00 0.00 0.00 71 1012.9
20260505235147 65 244 5.0 15.0 0.00 0.00 0.00 69 1012.8
20260505234248 65 258 8.0 17.0 0.00 0.00 0.00 69 1012.7
20260505232607 63 267 7.0 17.0 0.00 0.00 0.00 70 1012.9
20260505231707 63 260 9.0 17.0 0.00 0.00 0.00 69 1012.9
20260505230807 64 241 8.0 14.0 0.00 0.00 0.00 69 1012.9
20260505225907 64 256 7.0 14.0 0.00 0.00 0.00 68 1012.9
20260505224107 63 258 8.0 17.0 0.00 0.00 0.00 70 1013.0
20260505223207 62 245 7.0 14.0 0.00 0.00 0.00 73 1013.1